Location: *
(40.7873°S, 98.7174°E)
Time: 11:09:38
(UTC+00:00)

Kosmos-1816 - Pass Details

Date: 27 June 2024
Orbit: 959 x 1007 km, 82.9° (Epoch: 23 July)

Event Time Altitude Azimuth Distance (km) Brightness Sun altitude
Rises 11:27:38 0° 186° (S) 3,757 8.9 -14.8°
Reaches altitude 10° 11:30:13 10° 183° (S) 2,795 8.2 -15.3°
Maximum altitude 11:36:38 71° 99° (E) 1,052 6.0 -16.5°
Drops below altitude 10° 11:42:54 10° 14° (NNE) 2,729 8.4 -17.6°
Sets 11:45:23 0° 12° (NNE) 3,662 9.1 -18.1°
